timestamp,wind_dir_avg,wind_spd_avg,wind_spd_max_dir,wind_spd_gust,battery_voltage,lat,long
2024-03-06 00:04:00+00:00,244.0,9.75,242.0,11.6,12.25,47.59359,-54.27349
2024-03-06 00:14:00+00:00,235.0,10.06,240.0,12.52,12.17,47.59359,-54.27349
2024-03-06 00:24:00+00:00,241.0,10.31,243.0,12.26,12.17,47.59359,-54.27349
2024-03-06 00:34:00+00:00,242.0,9.43,246.0,11.04,12.17,47.59359,-54.27349
2024-03-06 00:44:00+00:00,235.0,9.49,239.0,11.23,12.17,47.59359,-54.27349
2024-03-06 00:54:00+00:00,233.0,9.82,231.0,10.89,12.17,47.59359,-54.27349
2024-03-06 01:04:00+00:00,233.0,10.28,242.0,11.87,12.17,47.59359,-54.27349
2024-03-06 01:14:00+00:00,238.0,9.75,240.0,11.06,12.17,47.59359,-54.27349
2024-03-06 01:24:00+00:00,239.0,8.94,241.0,10.19,12.17,47.59359,-54.27349
2024-03-06 01:34:00+00:00,237.0,9.65,245.0,11.26,12.17,47.59359,-54.27349
2024-03-06 01:44:00+00:00,233.0,9.4,238.0,10.87,12.17,47.59359,-54.27349
2024-03-06 01:54:00+00:00,234.0,9.66,240.0,10.92,12.17,47.59359,-54.27349
2024-03-06 02:04:00+00:00,237.0,9.59,236.0,10.74,12.17,47.59359,-54.27349
2024-03-06 02:14:00+00:00,234.0,9.71,236.0,11.06,12.17,47.59359,-54.27349
2024-03-06 02:24:00+00:00,229.0,10.24,231.0,11.63,12.17,47.59359,-54.27349
2024-03-06 02:34:00+00:00,237.0,9.86,237.0,11.18,12.17,47.59359,-54.27349
2024-03-06 02:44:00+00:00,235.0,10.09,234.0,11.01,12.17,47.59359,-54.27349
2024-03-06 02:54:00+00:00,234.0,10.13,232.0,11.71,12.17,47.59359,-54.27349
2024-03-06 03:04:00+00:00,226.0,10.95,226.0,12.7,12.17,47.59359,-54.27349
2024-03-06 03:14:00+00:00,228.0,10.66,229.0,12.82,12.09,47.59359,-54.27349
2024-03-06 03:24:00+00:00,232.0,10.62,234.0,11.88,12.09,47.59359,-54.27349
2024-03-06 03:34:00+00:00,228.0,10.53,222.0,12.24,12.09,47.59359,-54.27349
2024-03-06 03:44:00+00:00,234.0,10.69,229.0,12.41,12.09,47.59359,-54.27349
2024-03-06 03:54:00+00:00,234.0,10.54,241.0,12.55,12.09,47.59359,-54.27349
2024-03-06 04:04:00+00:00,234.0,10.01,232.0,11.94,12.09,47.59359,-54.27349
2024-03-06 04:14:00+00:00,235.0,10.18,235.0,12.25,12.09,47.59359,-54.27349
2024-03-06 04:24:00+00:00,236.0,10.29,241.0,11.88,12.09,47.59359,-54.27349
2024-03-06 04:34:00+00:00,236.0,10.42,236.0,12.29,12.09,47.59359,-54.27349
2024-03-06 04:44:00+00:00,236.0,10.76,240.0,11.86,12.09,47.59359,-54.27349
2024-03-06 04:54:00+00:00,234.0,10.25,238.0,11.99,12.09,47.59359,-54.27349
2024-03-06 05:04:00+00:00,231.0,10.69,231.0,12.44,12.09,47.59359,-54.27349
2024-03-06 05:14:00+00:00,234.0,10.55,238.0,12.0,12.09,47.59359,-54.27349
2024-03-06 05:24:00+00:00,231.0,10.08,236.0,11.87,12.09,47.59359,-54.27349
2024-03-06 05:34:00+00:00,234.0,10.94,231.0,12.44,12.09,47.59359,-54.27349
2024-03-06 05:44:00+00:00,232.0,11.3,230.0,13.05,12.09,47.59359,-54.27349
2024-03-06 05:54:00+00:00,232.0,11.93,229.0,12.65,12.09,47.59359,-54.27349
2024-03-06 06:04:00+00:00,229.0,11.43,228.0,12.84,12.09,47.59359,-54.27349
2024-03-06 06:14:00+00:00,239.0,10.9,235.0,12.25,12.09,47.59359,-54.27349
2024-03-06 06:24:00+00:00,234.0,10.85,236.0,12.51,12.09,47.59359,-54.27349
2024-03-06 06:34:00+00:00,230.0,10.07,228.0,11.64,12.09,47.59359,-54.27349
2024-03-06 06:44:00+00:00,232.0,9.94,240.0,11.59,12.09,47.59359,-54.27349
2024-03-06 06:54:00+00:00,233.0,10.97,229.0,12.98,12.09,47.59359,-54.27349
2024-03-06 07:04:00+00:00,235.0,10.68,230.0,12.65,12.09,47.59359,-54.27349
2024-03-06 07:14:00+00:00,237.0,10.33,235.0,12.51,12.01,47.59359,-54.27349
2024-03-06 07:24:00+00:00,236.0,10.2,238.0,11.89,12.01,47.59359,-54.27349
2024-03-06 07:34:00+00:00,237.0,11.05,236.0,12.59,12.01,47.59359,-54.27349
2024-03-06 07:44:00+00:00,232.0,10.72,229.0,13.3,12.01,47.59359,-54.27349
2024-03-06 07:54:00+00:00,241.0,11.1,238.0,12.39,12.01,47.59359,-54.27349
2024-03-06 08:04:00+00:00,227.0,8.93,232.0,12.74,12.01,47.59359,-54.27349
2024-03-06 08:14:00+00:00,227.0,11.16,229.0,12.52,12.01,47.59359,-54.27349
2024-03-06 08:24:00+00:00,226.0,9.38,229.0,11.52,12.01,47.59359,-54.27349
2024-03-06 08:34:00+00:00,231.0,11.93,230.0,13.18,12.01,47.59359,-54.27349
2024-03-06 08:44:00+00:00,230.0,9.8,230.0,11.5,12.01,47.59359,-54.27349
2024-03-06 08:54:00+00:00,230.0,9.54,236.0,11.82,12.01,47.59359,-54.27349
2024-03-06 09:04:00+00:00,226.0,11.27,228.0,13.04,12.01,47.59359,-54.27349
2024-03-06 09:14:00+00:00,228.0,11.69,228.0,13.08,12.01,47.59359,-54.27349
2024-03-06 09:24:00+00:00,228.0,11.49,230.0,12.74,12.01,47.59359,-54.27349
2024-03-06 09:34:00+00:00,230.0,11.11,239.0,12.49,12.01,47.59359,-54.27349
2024-03-06 09:44:00+00:00,227.0,10.91,228.0,12.82,12.01,47.59359,-54.27349
2024-03-06 09:54:00+00:00,230.0,11.68,231.0,12.72,12.01,47.59359,-54.27349
2024-03-06 10:04:00+00:00,224.0,9.19,231.0,11.52,12.01,47.59359,-54.27349
2024-03-06 10:14:00+00:00,232.0,10.38,237.0,11.8,11.93,47.59359,-54.27349
2024-03-06 10:24:00+00:00,231.0,11.03,230.0,12.29,11.93,47.59359,-54.27349
2024-03-06 10:34:00+00:00,229.0,9.65,233.0,11.61,11.93,47.59359,-54.27349
2024-03-06 10:44:00+00:00,231.0,11.64,230.0,12.74,11.93,47.59359,-54.27349
2024-03-06 10:54:00+00:00,227.0,12.16,224.0,13.32,11.93,47.59359,-54.27349
2024-03-06 11:04:00+00:00,225.0,12.41,227.0,13.45,11.93,47.59359,-54.27349
2024-03-06 11:14:00+00:00,226.0,12.66,227.0,13.59,11.93,47.59359,-54.27349
2024-03-06 11:24:00+00:00,229.0,11.66,230.0,13.09,11.93,47.59359,-54.27349
2024-03-06 11:34:00+00:00,230.0,11.73,229.0,13.12,11.93,47.59359,-54.27349
2024-03-06 11:44:00+00:00,229.0,12.22,235.0,14.96,11.93,47.59359,-54.27349
2024-03-06 11:54:00+00:00,228.0,12.23,228.0,13.07,11.93,47.59359,-54.27349
2024-03-06 12:04:00+00:00,229.0,11.54,229.0,12.64,11.93,47.59359,-54.27349
2024-03-06 12:14:00+00:00,227.0,11.6,228.0,12.97,12.17,47.59359,-54.27349
2024-03-06 12:24:00+00:00,228.0,10.48,225.0,12.74,12.17,47.59359,-54.27349
2024-03-06 12:34:00+00:00,229.0,10.54,230.0,12.63,12.17,47.59359,-54.27349
2024-03-06 12:44:00+00:00,227.0,9.15,234.0,11.53,12.17,47.59359,-54.27349
2024-03-06 12:54:00+00:00,230.0,11.34,233.0,12.32,12.17,47.59359,-54.27349
2024-03-06 13:04:00+00:00,230.0,10.72,230.0,12.25,12.17,47.59359,-54.27349
2024-03-06 13:14:00+00:00,233.0,10.46,233.0,11.87,12.97,47.59359,-54.27349
2024-03-06 13:24:00+00:00,229.0,9.36,232.0,11.24,12.97,47.59359,-54.27349
2024-03-06 13:34:00+00:00,216.0,7.5,233.0,9.65,12.97,47.59359,-54.27349
2024-03-06 13:44:00+00:00,215.0,6.98,238.0,9.38,12.97,47.59359,-54.27349
2024-03-06 13:54:00+00:00,214.0,6.17,214.0,7.11,12.97,47.59359,-54.27349
2024-03-06 14:04:00+00:00,215.0,6.81,224.0,8.3,12.97,47.59359,-54.27349
2024-03-06 14:14:00+00:00,213.0,8.08,225.0,10.17,13.29,47.59359,-54.27349
2024-03-06 14:24:00+00:00,215.0,6.98,230.0,9.45,13.29,47.59359,-54.27349
2024-03-06 14:34:00+00:00,209.0,7.69,206.0,8.61,13.29,47.59359,-54.27349
2024-03-06 14:44:00+00:00,210.0,7.42,209.0,8.4,13.29,47.59359,-54.27349
2024-03-06 14:54:00+00:00,210.0,7.67,211.0,8.29,13.29,47.59359,-54.27349
2024-03-06 15:04:00+00:00,213.0,7.67,226.0,9.5,13.29,47.59359,-54.27349
2024-03-06 15:14:00+00:00,208.0,8.24,224.0,9.96,13.37,47.59359,-54.27349
2024-03-06 15:24:00+00:00,205.0,7.8,205.0,8.89,13.37,47.59359,-54.27349
2024-03-06 15:34:00+00:00,211.0,7.1,212.0,7.95,13.37,47.59359,-54.27349
2024-03-06 15:44:00+00:00,213.0,7.37,228.0,9.97,13.37,47.59359,-54.27349
2024-03-06 15:54:00+00:00,211.0,7.02,212.0,7.67,13.37,47.59359,-54.27349
2024-03-06 16:04:00+00:00,213.0,7.0,214.0,7.31,13.37,47.59359,-54.27349
2024-03-06 16:14:00+00:00,210.0,7.4,215.0,8.32,13.44,47.59359,-54.27349
2024-03-06 16:24:00+00:00,210.0,7.92,212.0,8.68,13.44,47.59359,-54.27349
2024-03-06 16:34:00+00:00,211.0,7.62,208.0,8.33,13.44,47.59359,-54.27349
2024-03-06 16:44:00+00:00,211.0,6.88,213.0,7.57,13.44,47.59359,-54.27349
2024-03-06 16:54:00+00:00,215.0,6.17,217.0,6.84,13.44,47.59359,-54.27349
2024-03-06 17:04:00+00:00,216.0,5.93,216.0,6.24,13.44,47.59359,-54.27349
2024-03-06 17:14:00+00:00,210.0,6.32,210.0,7.1,13.21,47.59359,-54.27349
2024-03-06 17:24:00+00:00,173.0,5.61,194.0,6.35,13.21,47.59359,-54.27349
2024-03-06 17:34:00+00:00,156.0,5.71,157.0,6.24,13.21,47.59359,-54.27349
2024-03-06 17:44:00+00:00,161.0,6.0,160.0,6.36,13.21,47.59359,-54.27349
2024-03-06 17:54:00+00:00,206.0,6.02,211.0,6.68,13.21,47.59359,-54.27349
2024-03-06 18:04:00+00:00,165.0,5.56,162.0,6.21,13.21,47.59359,-54.27349
2024-03-06 18:14:00+00:00,218.0,5.52,216.0,6.18,13.37,47.59359,-54.27349
2024-03-06 18:24:00+00:00,233.0,4.65,229.0,5.07,13.37,47.59359,-54.27349
2024-03-06 18:34:00+00:00,215.0,4.71,218.0,5.44,13.37,47.59359,-54.27349
2024-03-06 18:44:00+00:00,155.0,4.57,153.0,4.89,13.37,47.59359,-54.27349
2024-03-06 18:54:00+00:00,160.0,3.14,144.0,4.12,13.37,47.59359,-54.27349
2024-03-06 19:04:00+00:00,172.0,4.77,207.0,5.36,13.37,47.59359,-54.27349
2024-03-06 19:14:00+00:00,202.0,6.07,210.0,7.07,13.05,47.59359,-54.27349
2024-03-06 19:24:00+00:00,181.0,3.66,217.0,4.89,13.05,47.59359,-54.27349
2024-03-06 19:34:00+00:00,165.0,6.47,170.0,7.39,13.05,47.59359,-54.27349
2024-03-06 19:44:00+00:00,159.0,4.32,152.0,5.23,13.05,47.59359,-54.27349
2024-03-06 19:54:00+00:00,138.0,3.32,133.0,3.71,13.05,47.59359,-54.27349
2024-03-06 20:04:00+00:00,205.0,3.81,218.0,5.06,13.05,47.59359,-54.27349
2024-03-06 20:14:00+00:00,172.0,3.86,165.0,4.47,12.89,47.59359,-54.27349
2024-03-06 20:24:00+00:00,169.0,3.95,162.0,4.57,12.89,47.59359,-54.27349
2024-03-06 20:34:00+00:00,159.0,4.12,160.0,4.62,12.89,47.59359,-54.27349
2024-03-06 20:44:00+00:00,225.0,5.5,220.0,6.19,12.89,47.59359,-54.27349
2024-03-06 20:54:00+00:00,158.0,1.84,141.0,2.3,12.89,47.59359,-54.27349
2024-03-06 21:04:00+00:00,129.0,2.6,126.0,2.92,12.89,47.59359,-54.27349
2024-03-06 21:14:00+00:00,201.0,1.15,199.0,1.26,12.41,47.59359,-54.27349
2024-03-06 21:24:00+00:00,278.0,0.21,268.0,2.23,12.41,47.59359,-54.27349
2024-03-06 21:34:00+00:00,83.0,1.24,79.0,1.68,12.41,47.59359,-54.27349
2024-03-06 21:44:00+00:00,342.0,1.5,337.0,1.72,12.41,47.59359,-54.27349
2024-03-06 21:54:00+00:00,86.0,0.18,97.0,0.41,12.41,47.59359,-54.27349
2024-03-06 22:04:00+00:00,204.0,1.02,208.0,1.14,12.41,47.59359,-54.27349
2024-03-06 22:14:00+00:00,19.0,1.65,20.0,2.08,12.25,47.59359,-54.27349
2024-03-06 22:24:00+00:00,242.0,2.26,244.0,2.66,12.25,47.59359,-54.27349
2024-03-06 22:34:00+00:00,56.0,1.8,66.0,2.63,12.25,47.59359,-54.27349
2024-03-06 22:44:00+00:00,122.0,1.17,128.0,1.85,12.25,47.59359,-54.27349
2024-03-06 22:54:00+00:00,151.0,1.42,151.0,1.62,12.25,47.59359,-54.27349
2024-03-06 23:04:00+00:00,229.0,1.83,230.0,2.07,12.25,47.59359,-54.27349
2024-03-06 23:14:00+00:00,233.0,3.2,231.0,3.64,12.17,47.59359,-54.27349
2024-03-06 23:24:00+00:00,249.0,3.62,249.0,3.76,12.17,47.59359,-54.27349
2024-03-06 23:34:00+00:00,205.0,2.07,211.0,2.46,12.17,47.59359,-54.27349
2024-03-06 23:44:00+00:00,215.0,3.0,216.0,3.31,12.17,47.59359,-54.27349
2024-03-06 23:54:00+00:00,168.0,2.45,167.0,2.64,12.17,47.59359,-54.27349
